Location: B?jaj?g
(11.7167°N, 92.6667°E)
Time: 13:19:16
(UTC+00:00)

H-10 deb - Pass Details

Date: 18 September 2020
Orbit: 374 x 32717 km, 7.1° (Epoch: 20 October)

Event Time Altitude Azimuth Distance (km) Brightness Sun altitude
Exits shadow 20:52:34 54° 146° (SE) 1,971 4.4 -41.2°
Drops below altitude 10° 05:13:17 10° 102° (ESE) 17,811 9.7 77.2°
Sets 05:28:13 0° 99° (E) 15,527 9.2 78.9°
